[[{"header":{"parameterUnit":"m.s-1","parameterCategory":1,"la1":30.2991,"la2":30.254,"lo1":-89.0895,"lo2":-89.0444,"dy":0.0017,"dx":0.0017,"nx":28,"ny":28,"refTime":"2023-10-22T09:00:00:Z","depth":0,"parameterNumber":2,"parameterNumberName":"U-component_of_WINDS"},"data":[0,0,0,0,0,0,0,0,0,0,0,0,0,0,0,0,0,0,0,0,0,0,0,0,0,0,0,0,0,0,0,0,0,0,0,0,0,0,0,0,0,0,0,0,0,0,0,0,0,0,0,0,0,0,0,0,0,0,-2.0019,-2.0019,0,-2.0049,-2.0049,-2.0049,-2.0095,-2.0096,-2.0097,-2.0098,-2.0126,-2.0126,-2.0126,0,0,0,0,0,0,0,0,0,0,0,0,0,-2.0002,-2.0002,-2.0019,-2.0019,-2.002,-2.0049,-2.0049,-2.0049,-2.0095,-2.0096,-2.0097,-2.0098,-2.0126,-2.0126,-2.0126,0,0,0,0,0,0,0,0,0,0,0,0,0,-2.0018,-2.0002,-2.0019,-2.0046,-2.0049,-2.0048,-2.0049,-2.0049,-2.0095,-2.0096,-2.0097,-2.0099,-2.0126,-2.0126,-2.0126,-2.0101,0,0,-2.0126,-2.0126,0,0,0,0,0,0,0,0,-2.0017,-2.0019,-2.0042,-2.0044,-2.0047,-2.007,-2.0054,-2.0067,-2.0095,-2.0077,-2.0098,-2.0099,-2.0106,-2.0108,-2.0111,-2.0102,-2.0104,-2.0126,-2.0126,-2.0126,-2.0126,0,0,0,0,0,0,0,-2.0016,-2.0018,-2.0031,-2.0042,-2.0045,-2.0057,-2.0061,-2.0056,-2.0084,-2.0079,-2.0082,-2.0085,-2.0108,-2.0111,-2.0112,-2.0104,-2.0126,-2.0126,-2.0126,-2.0126,-2.008,-2.0079,0,0,0,0,0,0,-2.0011,-2.0016,-2.003,-2.0031,-2.0035,-2.0056,-2.006,-2.0061,-2.0085,-2.0089,-2.0084,-2.0087,-2.011,-2.0112,-2.0113,-2.0087,-2.0126,-2.0126,-2.0126,-2.0081,-2.008,-2.0079,0,0,0,0,0,0,-2.001,-2.0012,-2.0028,-2.0025,-2.0028,-2.0055,-2.0056,-2.0061,-2.0064,-2.0089,-2.0094,-2.0082,-2.0111,-2.0113,-2.0105,-2.0088,-2.0126,-2.0126,-2.0083,-2.0081,-2.0079,-2.0033,0,0,0,0,0,0,-2.001,-2.0011,-2.0002,-2.0024,-2.0028,-2.0019,-2.0055,-2.0061,-2.0064,-2.0068,-2.0088,-2.0092,-2.0112,-2.0104,-2.0105,-2.0089,-2.0126,-2.0084,-2.0082,-2.008,-2.0036,-2.003,-2.0025,0,0,0,0,0,-2.0009,-1.9986,-2.0001,-2.0002,-2.0017,-2.0018,-2.002,-2.0044,-2.0062,-2.0053,-2.007,-2.0091,-2.009,-2.0103,-2.0104,-2.0088,-2.0085,-2.0083,-2.008,-2.0039,-2.0031,-2.0025,0,0,0,0,0,0,-1.9959,-1.999,-2.0006,-1.999,-2.0001,-2.0026,-2.0015,-2.0035,-2.0041,-2.0044,-2.0074,-2.0078,-2.0066,-2.0076,-2.009,-2.0067,-2.0091,-2.0089,-2.006,-2.0053,-2.0047,-2.0045,-2.0126,0,0,0,0,0,-1.9947,-1.9945,-1.9972,-1.9955,-1.9961,-1.9987,-1.9988,-2.0006,-2.0019,-2.0023,-2.0039,-2.005,-2.0053,-2.0054,-2.0057,-2.0039,-2.0044,-2.0028,-2.0023,-2.0018,-2.0015,-2.0008,-2.0002,-2.007,-2.007,-2.007,0,0,-1.992,-1.9936,-1.9933,-1.9946,-1.9957,-1.9955,-1.999,-1.9986,-1.9986,-2.0023,-2.0016,-2.0029,-2.0043,-2.003,-2.0025,-2.0038,-1.9998,-2.0014,-2.001,-2.001,-2.0005,-1.9998,-1.9993,-2.0068,-2.0068,-2.0069,0,0,-1.987,-1.9883,-1.9871,-1.9882,-1.9899,-1.9917,-1.9915,-1.9937,-1.9947,-1.9941,-1.997,-1.997,-1.9973,-1.9983,-1.9988,-1.9947,-1.9968,-1.9948,-1.9917,-1.991,-1.9905,-1.99,-1.9887,-1.9881,-1.9945,-1.9945,-1.9945,0,-1.9835,-1.9834,-1.9862,-1.9858,-1.9863,-1.9899,-1.9888,-1.9897,-1.9914,-1.9917,-1.9932,-1.9939,-1.9951,-1.9942,-1.9932,-1.9935,-1.9934,-1.9945,-1.9903,-1.9899,-1.9895,-1.9883,-1.9877,-1.9942,-1.9942,-1.9943,-1.9943,0,-1.979,-1.9789,-1.9778,-1.9795,-1.9799,-1.9791,-1.982,-1.9821,-1.984,-1.9857,-1.9852,-1.9868,-1.9877,-1.9877,-1.9894,-1.9871,-1.9879,-1.9898,-1.9923,-1.9886,-1.9875,-1.987,-1.9939,-1.9939,-1.994,-1.9941,0,0,-1.9707,-1.9743,-1.9738,-1.9747,-1.977,-1.977,-1.9766,-1.9775,-1.9776,-1.9788,-1.9785,-1.9789,-1.9808,-1.9814,-1.9834,-1.9828,-1.9796,-1.9848,-1.9849,-1.9838,-1.9774,-1.9759,-1.9752,-1.9811,-1.981,-1.9809,-1.9773,0,-1.9662,-1.9655,-1.9683,-1.9669,-1.967,-1.9706,-1.9702,-1.9716,-1.9732,-1.9736,-1.9754,-1.9757,-1.9782,-1.9786,-1.9782,-1.9801,-1.9783,-1.9804,-1.9809,-1.9808,-1.9803,-1.9746,-1.973,-1.9694,-1.9768,-1.9768,-1.9767,0,-1.9608,-1.9619,-1.9605,-1.9632,-1.9634,-1.9629,-1.9642,-1.9645,-1.9662,-1.9675,-1.9684,-1.9708,-1.9706,-1.9731,-1.973,-1.9743,-1.9748,-1.9757,-1.9757,-1.9757,-1.9785,-1.9746,-1.9683,-1.9678,-1.976,-1.9761,-1.9761,0,-1.955,-1.9561,-1.9555,-1.9562,-1.9592,-1.9589,-1.9602,-1.9621,-1.9626,-1.9637,-1.9641,-1.9652,-1.9658,-1.9666,-1.9693,-1.9708,-1.9689,-1.9716,-1.97,-1.9699,-1.9693,-1.9693,-1.963,-1.9696,-1.9696,-1.9696,-1.9696,0,-1.9496,-1.9487,-1.953,-1.9526,-1.9517,-1.955,-1.9541,-1.9557,-1.9574,-1.9575,-1.9607,-1.9607,-1.9642,-1.9647,-1.9667,-1.9664,-1.9666,-1.9677,-1.9683,-1.9674,-1.9673,-1.9676,-1.9679,-1.9694,-1.9695,-1.9695,-1.9695,0,-1.9429,-1.9457,-1.9453,-1.9484,-1.9491,-1.9484,-1.951,-1.9509,-1.9529,-1.953,-1.9532,-1.9563,-1.9571,-1.9599,-1.9612,-1.9626,-1.9616,-1.9627,-1.961,-1.9614,-1.9597,-1.9598,-1.9534,-1.9528,-1.9597,-1.9596,-1.9596,0,-1.9392,-1.9387,-1.9418,-1.9421,-1.9433,-1.9437,-1.9444,-1.9477,-1.9482,-1.9504,-1.95,-1.951,-1.952,-1.9531,-1.9555,-1.9566,-1.9578,-1.9555,-1.9579,-1.9572,-1.9578,-1.9578,-1.9578,-1.9549,-1.9548,-1.9547,-1.9546,0,-1.9325,-1.9341,-1.9349,-1.9363,-1.937,-1.9382,-1.9396,-1.9397,-1.9434,-1.9439,-1.9447,-1.9455,-1.9471,-1.9481,-1.9497,-1.9511,-1.9535,-1.9539,-1.9536,-1.9527,-1.9518,-1.9523,-1.9596,-1.954,-1.954,-1.9541,-1.9541,-1.9542,-1.9273,-1.927,-1.9293,-1.9301,-1.9316,-1.9329,-1.933,-1.9352,-1.936,-1.9376,-1.9395,-1.9402,-1.9423,-1.9447,-1.946,-1.9466,-1.9479,-1.9475,-1.9473,-1.9472,-1.9468,-1.9517,-1.9469,-1.9469,-1.947,-1.947,-1.947,0,-1.9208,-1.9225,-1.9233,-1.9253,-1.9261,-1.9285,-1.9303,-1.9307,-1.9313,-1.9331,-1.9341,-1.9353,-1.9364,-1.939,-1.9404,-1.9405,-1.9416,-1.9407,-1.9407,-1.941,-1.9455,-1.9457,-1.9398,-1.9398,-1.9398,-1.9398,-1.9398,-1.9398,-1.9175,-1.9173,-1.9191,-1.9197,-1.9215,-1.9222,-1.9231,-1.9244,-1.9259,-1.927,-1.928,-1.9298,-1.932,-1.9337,-1.9349,-1.9357,-1.936,-1.9348,-1.9359,-1.94,-1.9407,-1.9413,-1.9415,-1.9348,-1.9348,-1.9314,-1.9314,-1.9313]},{"header":{"parameterUnit":"m.s-1","parameterCategory":1,"la1":30.2991,"la2":30.254,"lo1":-89.0895,"lo2":-89.0444,"dy":0.0017,"dx":0.0017,"nx":28,"ny":28,"refTime":"2023-10-22T09:00:00:Z","depth":0,"parameterNumber":3,"parameterNumberName":"V-component_of_WINDS"},"data":[0,0,0,0,0,0,0,0,0,0,0,0,0,0,0,0,0,0,0,0,0,0,0,0,0,0,0,0,0,0,0,0,0,0,0,0,0,0,0,0,0,0,0,0,0,0,0,0,0,0,0,0,0,0,0,0,0,0,1.2502,1.2502,0,1.2508,1.2509,1.2509,1.2585,1.2587,1.2589,1.2591,1.2594,1.2592,1.2591,0,0,0,0,0,0,0,0,0,0,0,0,0,1.2553,1.2551,1.2502,1.2502,1.2502,1.2508,1.2509,1.2509,1.2585,1.2587,1.259,1.2592,1.2595,1.2592,1.259,0,0,0,0,0,0,0,0,0,0,0,0,0,1.2542,1.2551,1.2502,1.2541,1.2545,1.2508,1.2509,1.2509,1.2584,1.2587,1.259,1.2593,1.2595,1.2593,1.259,1.2516,0,0,1.2582,1.2581,0,0,0,0,0,0,0,0,1.2542,1.254,1.2535,1.2538,1.2542,1.2549,1.2528,1.2511,1.2584,1.2569,1.2591,1.2594,1.2576,1.2576,1.257,1.2516,1.2516,1.2582,1.258,1.2579,1.2579,0,0,0,0,0,0,0,1.2543,1.254,1.2504,1.2535,1.2539,1.2557,1.2559,1.2525,1.2556,1.2571,1.2576,1.2576,1.2579,1.2573,1.2571,1.2516,1.2582,1.258,1.2578,1.2577,1.2401,1.2398,0,0,0,0,0,0,1.2539,1.254,1.2504,1.2505,1.255,1.2554,1.2556,1.2544,1.2557,1.2562,1.2574,1.258,1.2576,1.2574,1.2571,1.2485,1.2579,1.2577,1.2575,1.2404,1.24,1.2397,0,0,0,0,0,0,1.254,1.2535,1.2504,1.2524,1.2521,1.255,1.2536,1.2542,1.2536,1.2559,1.2565,1.2562,1.2578,1.2575,1.2529,1.2486,1.2576,1.2573,1.2408,1.2403,1.2399,1.2311,0,0,0,0,0,0,1.2541,1.2535,1.2507,1.2523,1.252,1.2462,1.2533,1.254,1.2532,1.254,1.2549,1.2554,1.258,1.2533,1.2527,1.2484,1.2571,1.2412,1.2406,1.24,1.2318,1.2304,1.2292,0,0,0,0,0,1.2542,1.2482,1.2506,1.2501,1.2487,1.246,1.2458,1.249,1.2528,1.25,1.2515,1.2553,1.2492,1.2527,1.2521,1.2477,1.2414,1.2407,1.24,1.2324,1.2307,1.2292,0,0,0,0,0,0,1.2459,1.2484,1.2511,1.2454,1.2454,1.2473,1.2439,1.2471,1.246,1.2468,1.2507,1.2509,1.2457,1.2463,1.2502,1.2406,1.246,1.2451,1.2404,1.2388,1.2375,1.2374,1.2569,0,0,0,0,0,1.2434,1.2411,1.2435,1.2382,1.2381,1.2409,1.2399,1.2424,1.2425,1.2425,1.2437,1.2436,1.2417,1.2403,1.2386,1.232,1.2322,1.2286,1.2273,1.2263,1.2254,1.2219,1.2203,1.2374,1.2374,1.2374,0,0,1.2382,1.2394,1.2376,1.2365,1.2369,1.2343,1.2409,1.2379,1.236,1.2421,1.2378,1.2387,1.2388,1.2331,1.2307,1.2335,1.2208,1.2254,1.2245,1.2242,1.221,1.2194,1.2179,1.2369,1.237,1.2371,0,0,1.2274,1.2281,1.2238,1.224,1.2244,1.2264,1.2254,1.2267,1.2275,1.2234,1.2279,1.2256,1.2222,1.2221,1.2216,1.2109,1.2143,1.2102,1.2034,1.1999,1.1985,1.1974,1.1934,1.192,1.2094,1.2094,1.2094,0,1.2209,1.2173,1.2211,1.2178,1.2172,1.2227,1.2183,1.2183,1.2181,1.2174,1.2206,1.2164,1.2169,1.2113,1.2087,1.2081,1.2069,1.21,1.1985,1.1973,1.1963,1.1925,1.1911,1.2089,1.2089,1.209,1.209,0,1.2092,1.2066,1.2031,1.2029,1.2018,1.198,1.2011,1.1996,1.2022,1.2038,1.1994,1.2003,1.1988,1.1977,1.2002,1.1924,1.1941,1.1978,1.2033,1.1941,1.1906,1.1893,1.2081,1.2083,1.2085,1.2086,0,0,1.193,1.1951,1.1937,1.1936,1.1946,1.1926,1.189,1.1878,1.1863,1.186,1.183,1.18,1.1835,1.1829,1.1854,1.1824,1.1737,1.1864,1.1865,1.1839,1.1651,1.1622,1.1605,1.176,1.1758,1.1756,1.165,0,1.1825,1.1766,1.1799,1.1734,1.1711,1.1763,1.1732,1.1733,1.1747,1.1729,1.1744,1.1722,1.177,1.1766,1.1739,1.1753,1.1699,1.1762,1.1731,1.173,1.1728,1.1587,1.1557,1.1456,1.1637,1.1635,1.1633,0,1.1695,1.1688,1.162,1.1635,1.1626,1.1597,1.1588,1.157,1.1573,1.1585,1.1579,1.1612,1.1576,1.1632,1.1583,1.1624,1.1614,1.162,1.1617,1.1614,1.1675,1.1579,1.1425,1.1409,1.1613,1.1614,1.1616,0,1.1582,1.1556,1.1512,1.1511,1.1526,1.1504,1.1509,1.1515,1.1506,1.1498,1.1492,1.1479,1.1472,1.1461,1.1489,1.1527,1.1436,1.1494,1.1444,1.1443,1.1421,1.1422,1.1262,1.1416,1.1417,1.1417,1.1417,0,1.1461,1.1418,1.1462,1.1435,1.1388,1.1426,1.1378,1.1389,1.1394,1.1369,1.1414,1.1389,1.1429,1.1408,1.143,1.1386,1.1382,1.139,1.1396,1.1386,1.1384,1.1378,1.1385,1.1413,1.1414,1.1415,1.1415,0,1.1327,1.1355,1.1311,1.133,1.1333,1.1297,1.1313,1.1288,1.1306,1.1274,1.1269,1.1296,1.1274,1.1302,1.1282,1.1297,1.1236,1.1253,1.1235,1.1239,1.1187,1.1191,1.1017,1.0996,1.1165,1.1163,1.1162,0,1.1247,1.1215,1.1231,1.1218,1.1221,1.1199,1.119,1.1227,1.1215,1.1216,1.1191,1.1173,1.1161,1.1123,1.114,1.1125,1.1141,1.1081,1.1139,1.1129,1.1139,1.114,1.1136,1.1069,1.1067,1.1065,1.1064,0,1.1102,1.1117,1.1103,1.1093,1.1081,1.1074,1.1071,1.1058,1.1097,1.1081,1.106,1.105,1.103,1.1011,1.1001,1.1006,1.104,1.1046,1.1033,1.1021,1.1011,1.1015,1.1201,1.1049,1.1051,1.1052,1.1052,1.1053,1.0991,1.0965,1.0972,1.0955,1.0956,1.0953,1.093,1.0946,1.0929,1.0917,1.0939,1.0912,1.0916,1.0906,1.0906,1.0885,1.091,1.0892,1.0888,1.0882,1.0874,1.1016,1.0883,1.0884,1.0884,1.0884,1.0885,0,1.0848,1.0855,1.0838,1.0833,1.0819,1.0855,1.0853,1.0839,1.0814,1.0815,1.0803,1.0778,1.076,1.0776,1.0761,1.0741,1.0756,1.0735,1.0737,1.0737,1.0852,1.0864,1.0723,1.0723,1.0723,1.0723,1.0723,1.0723,1.0771,1.0729,1.0745,1.0704,1.0712,1.0686,1.0682,1.0678,1.0679,1.065,1.0636,1.0647,1.0654,1.064,1.0625,1.063,1.0622,1.0595,1.0606,1.0713,1.0729,1.0744,1.0755,1.0594,1.0593,1.0492,1.0491,1.049]}]]